Valley City, ND

11:52 AM CST on December 12, 2019 (GMT -0600)
Valley City

Weather History for KBAC - October, 2019

Change the Weather History Date:

Friday, October 4, 2019

  Actual Average (KJMS) Record (KJMS)
Temperature  
Mean Temperature 44 °F -  
Max Temperature 50 °F 61 °F 94 °F (1963)
Min Temperature 39 °F 37 °F 19 °F (1935)
Degree Days  
Heating Degree Days 20    
Moisture  
Dew Point 40 °F    
Average Humidity 89    
Maximum Humidity 100    
Minimum Humidity 71    
Precipitation  
Precipitation 0.00 in - - ()
Sea Level Pressure  
Sea Level Pressure 30.24 in    
Wind  
Wind Speed 12 mph (SE)    
Max Wind Speed 22 mph    
Max Gust Speed 33 mph    
Visibility 10 miles    
Events      
Averages and records for this station are not official NWS values.
T = Trace of Precipitation, MM = Missing Value Source: NWS Daily Summary

Daily Weather History Graph

Daily Weather History Graph

Search for Another Location

Airport or City:

Astronomy

Oct. 04, 2019 Rise Set
Actual Time 7:34 AM CDT 7:06 PM CDT
Civil Twilight 7:04 AM CDT 7:36 PM CDT
Nautical Twilight 6:29 AM CDT 8:11 PM CDT
Astronomical Twilight 5:53 AM CDT 8:47 PM CDT
Moon 2:29 PM CDT (10/4) 11:15 PM CDT (10/4)
Length of Visible Light 12h 32m
Length of Day
11h 31m
Waxing Crescent, 40% of the Moon is Illuminated
Oct 4
Waxing Crescent
Oct 5
First Quarter
Oct 13
Full
Oct 21
Last Quarter
Oct 27
New

Hourly Weather History & Observations

Time (CDT) Temp. Windchill Dew Point Humidity Pressure Visibility Wind Dir Wind Speed Gust Speed Precip Events Conditions
12:15 AM 41.0 °F 37.1 °F 41.0 °F 100% 30.38 in 10.0 mi SSE 5.8 mph - N/A   Overcast
12:35 AM 41.0 °F 38.0 °F 39.2 °F 93% 30.38 in 10.0 mi ESE 4.6 mph - N/A   Overcast
12:55 AM 41.0 °F 36.4 °F 39.2 °F 93% 30.38 in 10.0 mi ESE 6.9 mph - N/A   Overcast
1:15 AM 41.0 °F 36.4 °F 39.2 °F 93% 30.38 in 10.0 mi SSE 6.9 mph - N/A   Overcast
1:35 AM 41.0 °F 36.4 °F 39.2 °F 93% 30.38 in 10.0 mi SE 6.9 mph - N/A   Overcast
1:55 AM 41.0 °F 36.4 °F 39.2 °F 93% 30.39 in 10.0 mi SSE 6.9 mph - N/A   Overcast
2:15 AM 41.0 °F 35.8 °F 39.2 °F 93% 30.39 in 10.0 mi SSE 8.1 mph - N/A   Overcast
2:35 AM 41.0 °F 35.2 °F 37.4 °F 87% 30.39 in 10.0 mi SSE 9.2 mph - N/A   Overcast
2:55 AM 41.0 °F 35.8 °F 37.4 °F 87% 30.39 in 10.0 mi SSE 8.1 mph - N/A   Overcast
3:15 AM 41.0 °F 34.7 °F 37.4 °F 87% 30.38 in 10.0 mi SSE 10.4 mph 16.1 mph N/A   Overcast
3:35 AM 41.0 °F 34.7 °F 37.4 °F 87% 30.38 in 10.0 mi SE 10.4 mph - N/A   Overcast
3:55 AM 41.0 °F 35.8 °F 37.4 °F 87% 30.38 in 10.0 mi SE 8.1 mph - N/A   Overcast
4:15 AM 41.0 °F 35.2 °F 39.2 °F 93% 30.38 in 10.0 mi SE 9.2 mph - N/A   Overcast
4:35 AM 41.0 °F 33.9 °F 39.2 °F 93% 30.37 in 10.0 mi SSE 12.7 mph 18.4 mph N/A   Overcast
4:55 AM 41.0 °F 34.3 °F 39.2 °F 93% 30.37 in 10.0 mi SE 11.5 mph - N/A   Overcast
5:15 AM 41.0 °F 34.3 °F 39.2 °F 93% 30.37 in 10.0 mi SSE 11.5 mph - N/A   Overcast
5:35 AM 39.2 °F 31.2 °F 39.2 °F 100% 30.37 in 10.0 mi SSE 13.8 mph - N/A   Overcast
5:55 AM 39.2 °F 30.5 °F 39.2 °F 100% 30.37 in 10.0 mi SSE 16.1 mph - N/A   Overcast
6:15 AM 39.2 °F 32.0 °F 39.2 °F 100% 30.37 in 10.0 mi SSE 11.5 mph 17.3 mph N/A   Overcast
6:35 AM 39.2 °F 30.5 °F 39.2 °F 100% 30.36 in 10.0 mi SSE 16.1 mph 24.2 mph N/A   Overcast
6:55 AM 39.2 °F 30.5 °F 39.2 °F 100% 30.36 in 10.0 mi SSE 16.1 mph - N/A   Overcast
7:15 AM 39.2 °F 32.0 °F 39.2 °F 100% 30.36 in 10.0 mi SE 11.5 mph 18.4 mph N/A   Overcast
7:35 AM 39.2 °F 31.6 °F 39.2 °F 100% 30.36 in 10.0 mi SSE 12.7 mph 20.7 mph N/A   Overcast
7:55 AM 39.2 °F 31.6 °F 39.2 °F 100% 30.36 in 10.0 mi SE 12.7 mph 21.9 mph N/A   Overcast
8:15 AM 39.2 °F 30.5 °F 39.2 °F 100% 30.36 in 10.0 mi SSE 16.1 mph 21.9 mph N/A   Overcast
8:35 AM 39.2 °F 30.2 °F 39.2 °F 100% 30.36 in 10.0 mi South 17.3 mph 25.3 mph N/A   Overcast
8:55 AM 39.2 °F 30.8 °F 39.2 °F 100% 30.36 in 10.0 mi South 15.0 mph 24.2 mph N/A   Overcast
9:15 AM 39.2 °F 30.8 °F 37.4 °F 93% 30.35 in 10.0 mi SSE 15.0 mph 21.9 mph N/A   Overcast
9:35 AM 39.2 °F 30.5 °F 37.4 °F 93% 30.35 in 10.0 mi SSE 16.1 mph - N/A   Overcast
10:15 AM 39.2 °F 30.5 °F 37.4 °F 93% 30.33 in 10.0 mi SSE 16.1 mph - N/A   Overcast
10:35 AM 39.2 °F 30.2 °F 37.4 °F 93% 30.33 in 10.0 mi SSE 17.3 mph - N/A   Overcast
10:55 AM 41.0 °F 32.8 °F 39.2 °F 93% 30.33 in 10.0 mi South 16.1 mph 21.9 mph N/A   Overcast
11:15 AM 41.0 °F 33.1 °F 39.2 °F 93% 30.33 in 10.0 mi SSE 15.0 mph 21.9 mph N/A   Overcast
11:35 AM 41.0 °F 32.5 °F 37.4 °F 87% 30.31 in 10.0 mi SSE 17.3 mph 24.2 mph N/A   Overcast
11:55 AM 41.0 °F 32.2 °F 37.4 °F 87% 30.31 in 10.0 mi SSE 18.4 mph 24.2 mph N/A   Overcast
12:15 PM 41.0 °F 32.5 °F 39.2 °F 93% 30.30 in 10.0 mi SSE 17.3 mph - N/A   Overcast
12:35 PM 41.0 °F 32.5 °F 39.2 °F 93% 30.29 in 10.0 mi South 17.3 mph - N/A   Overcast
12:55 PM 41.0 °F 31.6 °F 39.2 °F 93% 30.28 in 10.0 mi SE 20.7 mph - N/A   Overcast
1:15 PM 41.0 °F 32.5 °F 39.2 °F 93% 30.27 in 10.0 mi SSE 17.3 mph 26.5 mph N/A   Overcast
1:35 PM 41.0 °F 31.6 °F 39.2 °F 93% 30.25 in 10.0 mi SE 20.7 mph - N/A   Overcast
1:55 PM 42.8 °F 34.3 °F 39.2 °F 87% 30.24 in 10.0 mi SSE 19.6 mph 26.5 mph N/A   Overcast
2:15 PM 42.8 °F 33.8 °F 39.2 °F 87% 30.22 in 10.0 mi SSE 21.9 mph - N/A   Overcast
2:35 PM 44.6 °F 37.4 °F 39.2 °F 81% 30.21 in 10.0 mi SSE 16.1 mph 27.6 mph N/A   Overcast
2:55 PM 44.6 °F 36.6 °F 39.2 °F 81% 30.19 in 10.0 mi SSE 19.6 mph 26.5 mph N/A   Overcast
3:15 PM 46.4 °F 38.7 °F 39.2 °F 76% 30.18 in 10.0 mi SE 20.7 mph 28.8 mph N/A   Overcast
3:35 PM 48.2 °F - 39.2 °F 71% 30.17 in 10.0 mi SE 20.7 mph 26.5 mph N/A   Overcast
3:55 PM 46.4 °F 39.2 °F 39.2 °F 76% 30.15 in 10.0 mi SE 18.4 mph 25.3 mph N/A   Mostly Cloudy
4:15 PM 48.2 °F - 39.2 °F 71% 30.14 in 10.0 mi SE 19.6 mph 27.6 mph N/A   Mostly Cloudy
4:35 PM 46.4 °F 39.0 °F 39.2 °F 76% 30.13 in 10.0 mi SE 19.6 mph 27.6 mph N/A   Mostly Cloudy
4:55 PM 50.0 °F - 41.0 °F 71% 30.13 in 10.0 mi SE 17.3 mph 25.3 mph N/A   Mostly Cloudy
5:15 PM 48.2 °F - 39.2 °F 71% 30.12 in 10.0 mi North - - N/A   Mostly Cloudy
5:35 PM 48.2 °F - 39.2 °F 71% 30.12 in 10.0 mi SE 19.6 mph 27.6 mph N/A   Overcast
5:55 PM 48.2 °F - 41.0 °F 76% 30.11 in 10.0 mi SE 18.4 mph 25.3 mph N/A   Overcast
6:15 PM 48.2 °F - 39.2 °F 71% 30.10 in 10.0 mi SE 19.6 mph 32.2 mph N/A   Overcast
6:35 PM 46.4 °F 39.5 °F 41.0 °F 81% 30.09 in 10.0 mi SE 17.3 mph 25.3 mph N/A   Overcast
6:55 PM 46.4 °F 40.1 °F 41.0 °F 81% 30.09 in 10.0 mi SE 15.0 mph 26.5 mph N/A   Overcast
7:15 PM 46.4 °F 39.8 °F 41.0 °F 81% 30.08 in 10.0 mi SE 16.1 mph 29.9 mph N/A   Overcast
7:35 PM 46.4 °F 39.0 °F 41.0 °F 81% 30.07 in 10.0 mi SE 19.6 mph 33.4 mph N/A   Overcast
7:55 PM 44.6 °F 36.6 °F 41.0 °F 87% 30.06 in 10.0 mi SE 19.6 mph - N/A   Overcast
8:15 PM 44.6 °F 36.4 °F 41.0 °F 87% 30.06 in 10.0 mi SE 20.7 mph 31.1 mph N/A   Overcast
8:35 PM 44.6 °F 37.4 °F 41.0 °F 87% 30.06 in 10.0 mi SE 16.1 mph 24.2 mph N/A   Overcast
8:55 PM 44.6 °F 37.4 °F 41.0 °F 87% 30.05 in 10.0 mi SSE 16.1 mph 26.5 mph N/A   Overcast
9:15 PM 44.6 °F 36.9 °F 41.0 °F 87% 30.04 in 10.0 mi SE 18.4 mph - N/A   Overcast
9:35 PM 44.6 °F 36.6 °F 41.0 °F 87% 30.03 in 10.0 mi SE 19.6 mph 25.3 mph N/A   Overcast
9:55 PM 44.6 °F 37.4 °F 41.0 °F 87% 30.04 in 10.0 mi SSE 16.1 mph 24.2 mph N/A   Overcast
10:15 PM 44.6 °F 36.4 °F 41.0 °F 87% 30.04 in 10.0 mi SE 20.7 mph 27.6 mph N/A   Overcast
10:35 PM 44.6 °F 37.4 °F 41.0 °F 87% 30.04 in 10.0 mi SE 16.1 mph 28.8 mph N/A   Overcast
10:55 PM 44.6 °F 37.2 °F 42.8 °F 93% 30.04 in 10.0 mi SSE 17.3 mph 25.3 mph N/A   Overcast
11:15 PM 44.6 °F 37.4 °F 42.8 °F 93% 30.03 in 10.0 mi SE 16.1 mph 23.0 mph N/A   Overcast
11:35 PM 44.6 °F 36.6 °F 42.8 °F 93% 30.03 in 10.0 mi SE 19.6 mph - N/A   Overcast
11:55 PM 42.8 °F 36.2 °F 42.8 °F 100% 30.01 in 3.0 mi SE 12.7 mph 20.7 mph N/A   Overcast